Powrót do katalogu

TITAN 3C TRANSTAGE DEB

AktywnyMEO
NORAD 25000·DEBRIS·🇺🇸 United States

Wystrzelony Sep 26, 1968 z Cape Canaveral Space Force Station

Loading…

Następne Przeloty (najbliższe 24 godziny)

TLE

ŚwieżeSource: Space-Track

Epoka: Sep 14, 2026, 16:36 UTC

1 25000U 68081G   26257.69218822 -.00000086  00000-0  00000-0 0  9995
2 25000   2.0783  47.1446 0112324 287.4766 138.7449  1.01035848126227

Śledź TITAN 3C TRANSTAGE DEB w czasie rzeczywistym z AllMySat

Download on the App Store